TimeEST,TemperatureF,Dew PointF,Humidity,Sea Level PressureIn,VisibilityMPH,Wind Direction,Wind SpeedMPH,Gust SpeedMPH,PrecipitationIn,Events,Conditions,WindDirDegrees,DateUTC
12:53 AM,32.0,28.0,85,30.27,8.0,Calm,Calm,-,N/A,,Clear,0,2012-11-16 05:53:00
1:53 AM,33.1,28.9,85,30.27,8.0,WNW,4.6,-,N/A,,Clear,300,2012-11-16 06:53:00
2:53 AM,32.0,28.0,85,30.27,9.0,Calm,Calm,-,N/A,,Clear,0,2012-11-16 07:53:00
3:53 AM,32.0,28.9,88,30.26,9.0,NNW,3.5,-,N/A,,Clear,340,2012-11-16 08:53:00
4:53 AM,30.9,28.9,92,30.26,5.0,NW,3.5,-,N/A,,Clear,310,2012-11-16 09:53:00
5:53 AM,30.9,28.0,89,30.27,8.0,Calm,Calm,-,N/A,,Clear,0,2012-11-16 10:53:00
6:53 AM,30.0,28.0,92,30.27,7.0,NW,4.6,-,N/A,,Clear,310,2012-11-16 11:53:00
7:53 AM,30.9,28.9,92,30.30,6.0,Calm,Calm,-,N/A,,Clear,0,2012-11-16 12:53:00
8:53 AM,36.0,32.0,86,30.31,8.0,Calm,Calm,-,N/A,,Clear,0,2012-11-16 13:53:00
9:53 AM,43.0,34.0,71,30.31,10.0,Calm,Calm,-,N/A,,Clear,0,2012-11-16 14:53:00
10:53 AM,48.0,35.1,61,30.30,10.0,North,3.5,-,N/A,,Clear,360,2012-11-16 15:53:00
11:53 AM,53.1,33.1,47,30.29,10.0,ENE,5.8,-,N/A,,Clear,60,2012-11-16 16:53:00
12:53 PM,55.9,32.0,40,30.27,10.0,Calm,Calm,-,N/A,,Clear,0,2012-11-16 17:53:00
1:53 PM,55.9,30.9,39,30.25,10.0,Calm,Calm,-,N/A,,Clear,0,2012-11-16 18:53:00
2:53 PM,57.9,27.0,31,30.23,10.0,East,4.6,-,N/A,,Clear,100,2012-11-16 19:53:00
3:53 PM,57.9,25.0,28,30.24,10.0,ESE,4.6,-,N/A,,Clear,110,2012-11-16 20:53:00
4:53 PM,54.0,26.1,34,30.25,10.0,Calm,Calm,-,N/A,,Clear,0,2012-11-16 21:53:00
5:53 PM,50.0,26.1,39,30.27,10.0,Calm,Calm,-,N/A,,Clear,0,2012-11-16 22:53:00
6:53 PM,48.9,27.0,43,30.30,10.0,Calm,Calm,-,N/A,,Clear,0,2012-11-16 23:53:00
7:53 PM,46.9,28.9,50,30.32,10.0,NE,3.5,-,N/A,,Clear,40,2012-11-17 00:53:00
8:53 PM,43.0,30.9,62,30.34,10.0,Calm,Calm,-,N/A,,Clear,0,2012-11-17 01:53:00
9:53 PM,42.1,30.0,62,30.35,10.0,NNE,3.5,-,N/A,,Clear,20,2012-11-17 02:53:00
10:53 PM,39.9,30.0,68,30.36,10.0,Calm,Calm,-,N/A,,Clear,0,2012-11-17 03:53:00
11:53 PM,39.9,30.0,68,30.37,10.0,Calm,Calm,-,N/A,,Clear,0,2012-11-17 04:53:00